Location: Unspecified
(52.4292°N, 19.3359°E)
Time: 01:21:05
(UTC+02:00)

Vanguard 1 Rocket - Pass Details

Date: 27 May 2024
Orbit: 649 x 4221 km, 34.3° (Epoch: 13 June)

Event Time Altitude Azimuth Distance (km) Brightness Sun altitude
Rises 12:43:52 0° 264° (W) 7,512 12.1 59.0°
Reaches altitude 10° 12:50:33 10° 256° (WSW) 5,898 11.8 58.9°
Maximum altitude 13:02:54 27° 207° (SSW) 3,303 11.4 58.7°
Drops below altitude 10° 13:10:29 10° 153° (SSE) 3,531 10.9 58.4°
Sets 13:13:20 0° 141° (SE) 4,136 11.0 58.3°
